www.pogodaiklimat.ru

Погода и климат >> Архив погоды >> Китай >> Guai Zi Hu


ПОГОДА в Guai Zi Hu

  • Прогноз погоды в Guai Zi Hu
  • Монитор погоды в Guai Zi Hu
  • Климат города

АРХИВ ПОГОДЫ в Guai Zi Hu

Время (UTC), дата Ветер
(напр.,м/с)
 
Видим.   Явления Облачность Т
(С)
Тd
(С)
f
(%)
Тe
(С)
Тes
(С)
Комфортность P
(гПа)
Po
(гПа)
Тmin
(С)
Tmax
(С)
R
(мм)
R24
(мм)
S
(см)
03 14.10 С 1 23 км ясно +8.0 -13.0 21 +8 +15 1023.7 1024.0
06 14.10 С 1 25 км ясно +15.8 -11.6 14 +17 +26 1021.4 1021.0 -1.1
09 14.10 СЗ 2 24 км ясно +17.8 -11.0 13 +18 +20 1020.9 1021.0
12 14.10 З 3 24 км ясно +10.3 -11.1 21 +9 +9 1024.1 1024.0
18 14.10 В 2 25 км ?/? +5.6 -11.0 29 +4 +4 1024.1 913.1 +18.3
21 14.10 В 2 24 км ?/? +2.0 -11.9 35 -0 -0 1024.7 1025.0
00 15.10 Ю 1 24 км ясно +0.5 -12.5 37 -0 -0 1028.7 1046.2
03 15.10 В 5 10 км ясно +9.3 -10.2 24 +7 +10 1028.8 1029.0
06 15.10 В 4 23 км ясно +15.3 -11.2 15 +15 +20 1026.3 1026.0 -0.8
09 15.10 В 4 25 км ясно +16.4 -15.3 10 +16 +17 1026.0 1026.0
12 15.10 В 5 27 км ясно +10.9 -13.9 16 +9 +9 1028.8 1029.0
18 15.10 В 5 27 км ?/? +1.5 -14.6 29 -3 -3 1028.1 915.8 +16.8
21 15.10 В 3 28 км ?/? +0.4 -15.2 30 -3 -3 1027.4 1027.0
00 16.10 В 5 27 км ясно -0.3 -15.0 32 -5 -5 1029.3 1046.6
03 16.10 В 7 22 км ясно +9.6 -13.6 18 +7 +8 1028.0 1028.0
06 16.10 В 10 10 км 5/5
[]
+15.9 -8.4 18 +14 +14 1024.6 1025.0 -1.3
09 16.10 В 8 16 км 8/8
[]
+16.6 -7.1 19 +15 +15 1023.0 1023.0
12 16.10 В 5 21 км 5/5
[]
+13.0 -10.8 18 +11 +11 1024.5 1025.0
18 16.10 В 3 25 км ?/? +6.1 -12.5 25 +4 +4 1022.2 1022.0 +17.7
21 16.10 В 4 25 км ?/? +6.6 -11.5 26 +4 +4 1020.8 1021.0
00 17.10 В 2 24 км 9/9
[]
+5.6 -12.4 26 +4 +4 1022.5 1022.2
03 17.10 В 3 20 км 9/9
[]
+11.6 -9.4 22 +11 +11 1023.1 1023.0
06 17.10 В 2 17 км 9/9
[]
+16.3 +0.8 35 +17 +17 1021.1 1021.0 +5.1
09 17.10 В 2 17 км 9/9 2000 м
[]
+17.1 +2.7 38 +17 +18 1020.5 1021.0
12 17.10 В 3 15 км 9/9
[]
+12.5 +1.2 46 +11 +11 1023.0 1023.0
18 17.10 Ю 1 15 км ?/? +8.0 +1.6 64 +8 +8 1021.2 911.0 +17.8
21 17.10 Ю 3 16 км ?/? +5.5 +0.3 69 +2 +2 1021.0 1021.0
00 18.10 Ю 2 19 км 3/3
[]
+5.9 +1.8 75 +4 +4 1023.0 911.5
03 18.10 СВ 1 16 км 3/3
[]
+12.4 +2.8 52 +13 +17 1023.0 874.3
06 18.10 СВ 2 21 км 9/9 1500 м
[]
+19.1 +4.1 37 +20 +21 1019.5 910.0 +4.3
09 18.10 С 1 22 км 3/3
[]
+20.1 +1.5 29 +21 +23 комфорт 1018.6 1019.0
12 18.10 В 3 23 км 5/5
[]
+14.4 +0.6 39 +14 +14 1020.1 1020.0
18 18.10 Ю 6 24 км ?/? +11.0 +2.8 57 +8 +8 1015.8 1016.0 +20.5
21 18.10 ЮВ 2 20 км ?/? +10.4 +5.6 72 +9 +9 1014.5 1015.0
00 19.10 В 3 18 км ясно +5.0 +2.2 82 +2 +2 1017.5 1018.0
03 19.10 В 4 18 км ясно +14.1 +4.9 54 +13 +16 1016.3 1016.0
06 19.10 В 4 23 км ясно +20.3 +1.7 29 +21 +26 комфорт 1013.8 1014.0 +4.6
09 19.10 В 3 25 км ясно +21.2 -6.4 15 +20 +21 1012.8 1013.0
12 19.10 В 4 26 км ясно +15.0 -3.8 27 +14 +14 1016.8 1017.0
18 19.10 штиль 0 25 км ?/? +8.4 -0.6 53 +8 +8 1017.3 908.3 +21.9
21 19.10 З 1 26 км ?/? +4.0 -4.0 56 +3 +3 1018.0 1018.0
00 20.10 Ю 3 19 км ясно +5.5 +0.9 72 +2 +2 1020.1 1020.0
03 20.10 С 2 23 км ясно +12.2 -0.3 42 +12 +17 1021.7 1022.0
06 20.10 З 3 25 км 1/1
[]
+19.5 0.0 27 +20 +25 1020.0 1039.4 +3.8
09 20.10 З 3 24 км 9/9
[]
+20.4 -5.5 17 +20 +20 1019.8 1020.0
12 20.10 З 5 22 км 9/9
[]
+16.2 -4.4 24 +15 +15 1022.5 911.7
18 20.10 З 5 24 км ?/? +11.2 -4.9 32 +9 +9 1022.9 1023.0 +20.7
21 20.10 З 7 27 км ?/? +9.7 -9.4 25 +7 +7 1022.9 1023.0
00 21.10 З 7 26 км 1/1
[]
+8.0 -9.4 28 +4 +4 1025.0 914.4

 

Местоположение метеостанции Guai Zi Hu (Китай): широта 41.37 долгота 102.36 высота над уровнем моря 960 м.

В архиве по умолчанию представлена погода в Guai Zi Hu за последнюю неделю. Архивные данные за месяц целиком и за предыдущие месяцы, начиная с января 2011 года, Вы можете получить, выбрав интересующий диапазон дат из раскрывающегося списка и нажав кнопку "Ввод!".

Внимание! Время в таблицах - всемирное. Для получения местного времени необходимо прибавить поправку, которая в Guai Zi Hu равна 8 ч.

Смотрите также архив погоды в соседних городах и на ближайших метеорологических станциях:

Погода в Ejin Qi (Китай) (126 км)
Погода в Bayan Mod (Китай) (192 км)
Погода в Shine Usa (Монголия) (246 км)
Погода в Dalanzadgad (Монголия) (298 км)
Погода в Minqin (Китай) (311 км)
Погода в Zhangye (Китай) (317 км)
Погода в Hails (Китай) (335 км)
Погода в Jartai (Китай) (337 км)
Погода в Bogd (Монголия) (365 км)
Погода в Jiuquan (Китай) (373 км)

Пояснения к столбцам:

Ветер - указаны скорость ветра в м/с - средняя за 10 мин, порывы в срок и между сроками (в фигурных скобках) и направление, откуда дует ветер: С - северный, СВ - северо-восточный, В - восточный, ЮВ - юго-восточный, Ю - южный, ЮЗ - юго-западный, З - западный, СЗ - северо-западный.
Видимость - горизонтальная дальность видимости в метрах или километрах. При видимости от 1 до 10 км при отсутствии осадков обычно наблюдается дымка, при ухудшении видимости до 1 км и менее - туман. В сухую погоду видимость может ухудшаться дымом, пылью или мглою.
Явления - указаны атмосферные явления, наблюдавшиеся в срок или в последний час перед сроком; фигурными скобками обозначены явления, наблюдавшиеся между сроками (за 1-3 часа до срока); квадратными скобками обозначены град или гололедные отложения с указанием их диаметра в мм.
Облачность - указаны через наклонную черту общая и нижняя облачность в баллах и высота нижней границы облаков в метрах; квадратными скобками обозначены формы облаков: Ci - перистые, Cs - перисто-слоистые, Cc - перисто-кучевые, Ac - высококучевые, As - высокослоистые, Sc - слоисто-кучевые, Ns - слоисто-дождевые, Cu - кучевые, Cb - кучево-дождевые. Подробнее классификацию облаков см. в Атласе облаков (PDF).
T - Температура воздуха - температура, измеренная на высоте 2 м над землей.
Td - Температура точки росы - температура, при понижении до которой содержащийся в воздухе водяной пар достигнет насыщения.
f - Относительная влажность воздуха - влажноcть воздуха, измеренная на высоте 2 м над землей.
Te - Эффективная температура - температура, которую ощущает одетый по сезону человек в тени. Характеристика душности погоды. При расчете учитывается влияние влажности воздуха и скорости ветра на теплоощущения человека.
Tes - Эффективная температура на солнце - температура, которую ощущает человек, с поправкой на солнечный нагрев. Характеристика знойности погоды. Зависит от высоты солнца над горизонтом, облачности и скорости ветра. Ночью, в пасмурную погоду, а также при ветре 12 м/с и более поправка равна нулю.
P - Атмосферное давление - приведенное к уровню моря атмосферное давление.
Po - Атмосферное давление - измеренное на уровне метеостанции атмосферное давление.
Tmin - Минимальная температура - минимум температуры воздуха на высоте 2 м над землей.
Tmax - Максимальная температура - максимум температуры воздуха на высоте 2 м над землей.
R - Количество осадков - Количество выпавших осадков за период времени, мм. При наведении курсора мыши на число - период времени, за который выпало указанное количество осадков.
R24 - Количество осадков - Количество выпавших осадков за 24 часа, мм.
S - Снежный покров - Высота снежного покрова, см. При наведении курсора мыши на число - состояние снежного покрова и степень покрытия местности в баллах.